Regional Weather Roundup
Issued by NWS Raleigh/Durham, NC

Home | Current Version | Previous Version | Text Only | Print | Product List | Glossary On
Versions: 1 2 3 4 5 6 7 8 9 10 11 12 13 14 15 16 17 18 19 20 21 22 23 24 25 26 27 28 29 30 31 32 33 34 35 36 37 38 39 40 41 42 43 44 45 46 47 48 49 50
000
ASUS42 KRAH 310310
RWRRAH
NORTH CAROLINA WEATHER ROUNDUP
NATIONAL WEATHER SERVICE RALEIGH NC
1100 PM EDT SUN AUG 30 2015

NOTE: "FAIR" INDICATES FEW OR NO CLOUDS BELOW 12,000 FEET WITH NO
SIGNIFICANT WEATHER AND/OR OBSTRUCTIONS TO VISIBILITY.

NCZ001-053-055-056-065-067-310400-
WESTERN NORTH CAROLINA

CITY           SKY/WX    TMP DP  RH WIND       PRES   REMARKS
ASHEVILLE      CLOUDY    65  62  90 S5        30.22S
JEFFERSON      CLOUDY    64  56  78 CALM      30.24S
MORGANTON      LGT RAIN  67  65  93 SE3       30.22S
HICKORY        LGT RAIN  67  64  90 S5        30.17S
RUTHERFORDTON  RAIN      66  64  96 CALM      30.18F
MOUNT AIRY     CLOUDY    73  67  82 CALM      30.19S
BOONE          CLOUDY    64  57  77 CALM      30.25F
$$

NCZ021-022-025-041-071-084-088-310400-
CENTRAL NORTH CAROLINA

CITY           SKY/WX    TMP DP  RH WIND       PRES   REMARKS
CHARLOTTE      LGT RAIN  70  66  87 S5        30.15F
GREENSBORO     CLOUDY    73  62  68 S6        30.15S
WINSTON-SALEM  CLOUDY    74  62  66 S6        30.17S
RALEIGH-DURHAM CLOUDY    73  65  75 SW6       30.14F
FORT BRAGG     CLOUDY    71  67  88 CALM      30.12F
FAYETTEVILLE   CLOUDY    71  69  93 CALM      30.12F
BURLINGTON     CLOUDY    73  66  78 SW7       30.15S
LAURINBURG     CLOUDY    70  67  90 E3        30.13F
$$

NCZ011-015-027-028-043-044-047-080-103-310400-
NORTHEASTERN NORTH CAROLINA

CITY           SKY/WX    TMP DP  RH WIND       PRES   REMARKS
ROCKY MT-WILSO CLOUDY    75  65  70 SW5       30.13F
GREENVILLE     CLOUDY    75  66  73 SW3       30.14F
WASHINGTON     CLOUDY    76  67  75 SW5       30.13F
ELIZABETH CITY CLOUDY    75  72  90 S5        30.13S
MANTEO         CLOUDY    77  73  86 SW6       30.13F
CAPE HATTERAS  CLOUDY    77  72  84 SW3       30.13F
$$

NCZ078-087-090-091-093-098-101-310400-
SOUTHEASTERN NORTH CAROLINA

CITY           SKY/WX    TMP DP  RH WIND       PRES   REMARKS
LUMBERTON      CLOUDY    72  69  90 CALM      30.12F
GOLDSBORO      CLOUDY    74  67  79 CALM      30.12F
KINSTON        CLOUDY    74  68  81 CALM      30.14S
KENANSVILLE      N/A     71  68  90 CALM      30.13F
NEW BERN       CLOUDY    73  69  87 CALM      30.14F
CHERRY POINT   CLOUDY    75  68  78 CALM      30.14F
BEAUFORT       CLOUDY    75  71  87 CALM      30.13F
JACKSONVILLE   CLOUDY    73  70  90 CALM      30.13F
WILMINGTON     CLOUDY    72  69  90 CALM      30.12F
$$



USA.gov is the U.S. government's official web portal to all federal, state and local government web resources and services.